Content
SEND FEEDBACK

Daily
Averages
Monthly
Summary
United States of America

NEVADA CITY, CALIFORNIA


Home > North America > United States > California
Elevation: 2934 feet     Latitude: 39 18N     Longitude: 121 00W

WEATHER
 
SELECT A DAY
Number of Records: 60,065;   Date Range: 9/21/11 - 7/27/14
 
SHARE

PRINT THIS DATA

[ ← Previous Day ]
WEATHER ALMANAC - FEBRUARY 11, 2013
[ Next Day → ]
[ °C ]   °F
Weather ElementAverageHighLow
Temperature42.7 °F53.6 °F (12:55 pm)32 °F (5:55 am)
Dewpoint18.7 °F28.4 °F (6:15 pm)12.2 °F (9:55 am)
Humidity39.3 %61 % (6:35 pm)24 % (12:55 pm)
Barometer30.14 in30.22 in (11:35 pm)30.08 in (12:35 am)
Wind Speed2.8 mph10.4 mph (1:35 pm)
Wind Gust16.1 mph (1:35 pm)
Weather ElementAverage
Visibility10 mi
Wind DirectionENE (84.3 °)

Weather ElementTotal
Precipitation---
Heating Degree Days22.2 (Base 65)
Averaged from 69 records on February 11, 2013
WEATHER CONDITIONS BREAKOUT
WIND DIRECTION BREAKOUT
WEATHER BY HOUR - FEBRUARY 11, 2013
[ °C ]   °F
Local TimeTemperatureDewpointHumidityBarometerVisibilityWind DirectionWind SpeedGust SpeedPrecipitationEventsConditions
12:35 AM39.2 °F14.0 °F36 %30.08 in10.0 miCalmClear
12:55 AM39.2 °F14.0 °F36 %30.08 in10.0 miNNE (20°)3.5 mphClear
1:15 AM39.2 °F14.0 °F36 %30.08 in10.0 miNorth (350°)3.5 mphClear
1:35 AM35.6 °F17.6 °F48 %30.09 in10.0 miNNE (20°)3.5 mphClear
1:55 AM37.4 °F14.0 °F38 %30.08 in10.0 miCalmClear
2:15 AM35.6 °F15.8 °F44 %30.09 in10.0 miCalmClear
2:35 AM37.4 °F14.0 °F38 %30.09 in10.0 miCalmClear
2:55 AM37.4 °F14.0 °F38 %30.08 in10.0 miCalmClear
3:15 AM35.6 °F14.0 °F41 %30.08 in10.0 miENE (60°)3.5 mphClear
3:35 AM33.8 °F15.8 °F48 %30.08 in10.0 miCalmClear
3:55 AM33.8 °F15.8 °F48 %30.08 in10.0 miNE (40°)3.5 mphClear
4:15 AM37.4 °F14.0 °F38 %30.08 in10.0 miNorth (10°)4.6 mphClear
4:35 AM35.6 °F14.0 °F41 %30.09 in10.0 miNNE (20°)4.6 mphClear
4:55 AM33.8 °F15.8 °F48 %30.09 in10.0 miCalmClear
5:15 AM33.8 °F15.8 °F48 %30.09 in10.0 miCalmClear
5:35 AM33.8 °F15.8 °F48 %30.10 in10.0 miCalmClear
5:55 AM32.0 °F15.8 °F51 %30.10 in10.0 miNorth (10°)3.5 mphClear
6:15 AM35.6 °F14.0 °F41 %30.11 in10.0 miCalmClear
6:35 AM35.6 °F15.8 °F44 %30.11 in10.0 miNorth (10°)3.5 mphClear
6:55 AM35.6 °F14.0 °F41 %30.12 in10.0 miNE (40°)4.6 mphClear
7:15 AM35.6 °F15.8 °F44 %30.12 in10.0 miNE (40°)4.6 mphClear
7:35 AM35.6 °F15.8 °F44 %30.13 in10.0 miNNE (30°)4.6 mphClear
7:55 AM37.4 °F14.0 °F38 %30.13 in10.0 miCalmClear
8:15 AM37.4 °F15.8 °F41 %30.14 in10.0 miCalmClear
8:35 AM41.0 °F15.8 °F36 %30.14 in10.0 miCalmClear
8:55 AM41.0 °F14.0 °F33 %30.14 in10.0 miCalmClear
9:15 AM42.8 °F14.0 °F31 %30.15 in10.0 miCalmClear
9:35 AM44.6 °F14.0 °F29 %30.15 in10.0 miCalmClear
9:55 AM44.6 °F12.2 °F27 %30.16 in10.0 miWNW (290°)3.5 mphClear
10:15 AM46.4 °F14.0 °F27 %30.16 in10.0 miWest (270°)3.5 mphClear
10:35 AM46.4 °F14.0 °F27 %30.16 in10.0 miWest (260°)3.5 mphClear
10:55 AM48.2 °F14.0 °F25 %30.16 in10.0 miWNW (290°)5.8 mphClear
11:15 AM48.2 °F14.0 °F25 %30.16 in10.0 miCalmClear
11:35 AM48.2 °F14.0 °F25 %30.16 in10.0 miCalmClear
11:55 AM50.0 °F17.6 °F28 %30.15 in10.0 miWest (270°)6.9 mphClear
12:15 PM50.0 °F17.6 °F28 %30.14 in10.0 miNW (320°)6.9 mphClear
12:35 PM50.0 °F19.4 °F30 %30.13 in10.0 miWest (260°)6.9 mphClear
12:55 PM53.6 °F17.6 °F24 %30.13 in10.0 miWest (280°)8.1 mphClear
1:15 PM53.6 °F17.6 °F24 %30.12 in10.0 miWest (270°)9.2 mphClear
1:35 PM53.6 °F19.4 °F26 %30.12 in10.0 miWSW (240°)10.4 mph16.1 mphClear
1:55 PM53.6 °F19.4 °F26 %30.12 in10.0 miWest (280°)10.4 mphClear
2:55 PM51.8 °F24.8 °F35 %30.12 in10.0 miWNW (290°)6.9 mphClear
3:15 PM51.8 °F24.8 °F35 %30.12 in10.0 miWest (270°)9.2 mphClear
3:35 PM50.0 °F24.8 °F37 %30.13 in10.0 miWSW (250°)8.1 mphClear
3:55 PM50.0 °F26.6 °F40 %30.14 in10.0 miWSW (250°)8.1 mphClear
4:15 PM50.0 °F26.6 °F40 %30.14 in10.0 miWest (280°)8.1 mphClear
4:35 PM50.0 °F26.6 °F40 %30.15 in10.0 miWest (270°)6.9 mphClear
4:55 PM48.2 °F24.8 °F40 %30.15 in10.0 miCalmClear
5:15 PM48.2 °F26.6 °F43 %30.15 in10.0 miCalmClear
5:35 PM46.4 °F26.6 °F46 %30.16 in10.0 miCalmClear
5:55 PM44.6 °F26.6 °F49 %30.16 in10.0 miCalmClear
6:15 PM42.8 °F28.4 °F57 %30.17 in10.0 miCalmClear
6:35 PM41.0 °F28.4 °F61 %30.18 in10.0 miCalmClear
6:55 PM42.8 °F26.6 °F53 %30.18 in10.0 miCalmClear
7:15 PM42.8 °F26.6 °F53 %30.19 in10.0 miEast (90°)5.8 mphClear
7:35 PM42.8 °F26.6 °F53 %30.19 in10.0 miCalmClear
7:55 PM41.0 °F26.6 °F57 %30.19 in10.0 miCalmClear
8:15 PM44.6 °F24.8 °F46 %30.19 in10.0 miCalmClear
8:35 PM42.8 °F23.0 °F46 %30.20 in10.0 miNorth (360°)3.5 mphClear
8:55 PM41.0 °F23.0 °F49 %30.20 in10.0 miCalmClear
9:15 PM44.6 °F17.6 °F34 %30.20 in10.0 miNE (40°)6.9 mphClear
9:35 PM46.4 °F17.6 °F32 %30.20 in10.0 miNE (40°)4.6 mphClear
9:55 PM46.4 °F15.8 °F29 %30.20 in10.0 miCalmClear
10:15 PM48.2 °F15.8 °F27 %30.21 in10.0 miCalmClear
10:35 PM44.6 °F17.6 °F34 %30.21 in10.0 miCalmClear
10:55 PM44.6 °F19.4 °F37 %30.21 in10.0 miCalmClear
11:15 PM42.8 °F21.2 °F42 %30.21 in10.0 miCalmClear
11:35 PM39.2 °F24.8 °F56 %30.22 in10.0 miCalmClear
11:55 PM39.2 °F23.0 °F52 %30.22 in10.0 miCalmClear
Hourly data recorded from KGOO, located miles away from Nevada City, California







STORIES FROM OUR PARTNERS